Dewpoint
54 53 53 53 53 53 53 53 53 53 53 53 53 53 53 52 52 52 52 52 52 51 53 56 57 57 49 34 27 49 62 60 50 41 33 32 30 29 26 25 27 29 23 27 30 31 29
53 53 53 53 53 53 53 52 52 52 53 53 52 52 52 51 51 50 51 51 51 51 54 56 56 57 37 23 34 51 54 49 39 36 31 31 24 27 23 22 23 23 26 25 28 28 29
53 52 52 52 52 52 52 52 51 51 51 52 52 51 51 51 50 50 51 51 51 53 55 56 56 49 37 25 38 51 44 38 38 34 32 33 31 27 26 24 27 28 25 22 25 26 26
52 52 52 52 52 52 52 52 52 51 51 51 51 51 51 50 51 52 53 53 53 55 55 53 56 47 28 31 39 40 37 34 36 36 32 34 34 30 28 29 26 24 25 15 19 29 28
51 51 51 51 51 51 51 52 52 52 52 52 52 52 51 51 53 52 53 54 55 53 54 55 47 38 27 42 34 36 35 32 35 34 35 34 35 29 30 23 16 19 9 15 15 27 28
51 50 49 49 50 50 50 50 50 51 51 51 51 51 51 52 53 52 53 52 48 52 52 50 38 34 32 28 33 35 34 35 33 34 33 33 31 25 26 20 11 11 12 13 12 19 26
49 49 49 49 49 49 49 50 50 50 50 50 50 51 51 52 52 52 49 44 38 37 40 32 33 32 29 32 35 33 34 33 33 31 26 29 23 19 18 20 14 11 9 10 10 15 20
49 48 48 48 48 48 48 48 48 50 50 49 50 51 51 51 52 49 46 42 43 44 38 38 39 38 37 35 29 31 34 30 30 26 26 25 22 21 21 20 21 16 13 13 17 19 19
48 48 48 47 46 47 48 48 48 49 49 49 49 51 51 51 51 41 42 45 47 45 38 33 36 33 31 33 29 28 33 30 27 26 25 22 20 22 21 19 19 18 17 18 19 19 21
48 48 48 48 48 48 48 48 47 49 49 49 48 49 50 51 41 42 38 46 47 43 28 22 28 31 32 30 27 31 33 28 26 24 24 24 23 22 21 20 19 18 19 19 18 17 14
48 48 48 48 48 48 48 48 48 47 48 49 48 48 48 48 43 38 39 47 46 41 22 26 27 32 32 28 28 31 33 30 25 24 23 22 21 22 21 20 20 18 19 19 20 18 19
48 49 49 49 49 49 49 48 48 48 48 49 48 48 49 44 44 43 46 47 40 23 22 22 28 28 27 29 28 29 30 30 29 26 25 23 24 23 21 22 20 20 18 19 19 18 17
48 48 48 48 48 48 49 49 48 48 48 48 48 48 46 44 36 45 46 40 15 15 15 21 26 28 27 26 26 28 28 27 24 26 23 24 24 25 23 20 23 20 18 19 17 17 14
48 48 48 48 48 48 48 48 49 48 48 49 49 48 43 42 43 46 44 28 5 7 9 28 27 26 23 25 25 26 26 24 27 23 22 23 22 23 24 23 21 21 19 19 10 7 7
48 47 47 47 47 47 48 48 48 48 49 49 47 40 41 41 45 44 37 18 5 4 26 27 20 18 19 26 27 26 25 24 24 24 22 20 19 22 23 22 21 20 19 20 17 15 14
46 45 45 46 46 46 47 47 48 48 48 48 42 40 37 43 44 42 29 18 18 26 30 28 18 14 11 19 25 24 24 24 25 23 23 22 18 23 23 23 23 20 20 18 18 14 10
44 46 45 46 45 46 46 46 46 46 47 47 40 33 34 41 44 36 27 23 26 30 30 27 24 21 20 22 26 22 15 22 27 27 30 27 25 21 25 23 20 21 20 19 19 18 12
46 45 45 45 46 46 46 46 46 46 46 43 39 29 36 41 30 35 28 26 32 31 31 29 31 28 24 22 20 20 18 19 28 29 25 27 25 21 21 24 26 25 21 20 22 18 21
45 45 45 45 46 46 46 45 45 46 46 44 36 35 38 40 24 22 25 27 28 26 25 25 26 28 28 26 24 23 24 33 32 30 25 29 24 16 14 19 24 23 24 27 28 27 23
45 44 44 44 45 46 45 45 45 46 46 45 36 30 33 37 34 26 25 25 23 28 28 28 26 29 26 26 26 29 28 29 31 31 35 35 29 20 12 9 20 21 24 23 23 22 19
45 45 46 45 45 45 45 44 45 45 45 44 35 32 33 27 28 27 26 27 25 21 23 23 22 22 22 23 23 20 21 21 27 33 34 33 28 26 29 26 20 20 21 22 25 22 20
45 45 45 45 45 45 45 46 45 45 44 40 35 33 35 32 30 28 27 27 23 21 24 23 22 22 22 24 24 24 25 26 25 29 29 32 23 24 23 22 24 24 22 20 19 19 19
45 45 46 45 45 45 45 46 44 44 44 39 39 38 35 30 30 29 26 25 24 25 29 25 25 24 25 26 32 33 33 33 32 29 25 27 24 22 17 19 21 19 21 19 17 14 17
44 44 44 43 43 44 45 45 43 43 44 43 40 36 31 26 29 27 27 29 29 26 28 30 29 29 31 33 35 33 32 32 32 30 29 25 24 24 19 20 12 14 15 18 15 11 13
42 42 42 43 42 44 45 44 44 43 43 43 42 38 32 27 29 25 27 28 30 32 30 29 30 31 33 32 26 24 23 22 22 27 26 28 25 21 17 16 14 14 13 12 14 6 11
44 44 44 44 44 44 43 43 43 43 42 43 42 42 36 29 25 29 29 28 28 26 26 27 31 34 33 29 24 18 12 13 14 18 23 25 27 23 21 14 10 8 11 13 14 6 10
43 43 43 43 43 43 42 42 42 42 42 43 40 42 38 30 33 33 30 29 32 29 27 28 29 29 32 26 22 20 19 21 16 14 15 18 21 18 18 16 6 3 6 13 9 5 9
42 42 42 42 43 43 43 43 43 42 41 42 41 42 39 32 34 34 34 31 30 31 27 29 28 29 28 24 22 19 21 21 20 12 12 13 8 14 15 15 8 3 7 5 4 9 9
43 43 42 42 43 42 42 42 42 43 43 42 39 42 42 35 33 33 32 32 30 30 27 29 29 29 30 26 26 25 22 19 18 14 5 7 -0 1 -2 -4 3 5 4 8 8 6 6
Lifted_Index
12 12 12 12 12 12 12 12 12 12 12 12 12 12 13 13 13 13 14 14 14 14 13 11 10 11 12 11 10 9 7 8 11 13 13 12 11 11 10 10 10 9 9 9 9 9 9
12 12 12 12 12 12 12 12 13 13 12 12 13 13 13 14 14 14 14 14 14 13 12 11 11 12 12 11 11 10 9 10 12 13 13 12 12 11 11 10 10 10 9 9 9 9 9
13 13 13 13 13 13 13 13 13 13 13 13 13 14 14 14 14 14 14 14 14 13 12 11 11 12 12 12 12 11 11 12 13 13 13 13 12 12 11 11 11 10 9 8 7 8 8
13 13 13 13 13 13 13 13 13 13 13 14 14 14 15 15 15 15 14 14 13 12 12 12 12 12 12 13 14 13 13 13 13 13 13 13 13 12 11 11 10 9 8 6 6 7 8
14 14 14 13 13 13 13 13 13 13 13 14 14 14 15 15 15 15 14 14 13 13 12 12 13 13 12 13 14 14 14 13 13 13 13 13 12 11 10 9 8 7 6 6 6 7 8
15 14 14 14 14 14 14 14 14 14 14 14 14 14 15 15 15 15 15 14 14 13 12 12 13 13 12 13 14 14 14 14 13 13 12 12 11 10 9 7 6 6 6 6 6 7 7
15 15 15 15 15 15 15 15 15 14 14 14 14 14 15 15 15 15 15 15 14 13 12 12 13 13 13 13 13 14 14 13 13 12 11 11 10 9 8 8 7 7 7 7 7 7 7
16 16 16 16 16 16 16 16 15 15 15 15 15 15 15 15 15 16 16 15 15 14 12 12 13 13 13 13 13 13 13 13 11 10 10 9 9 9 9 9 9 8 7 7 7 7 7
16 17 17 17 17 17 16 16 16 15 15 15 16 15 15 15 16 17 17 16 16 14 11 11 12 13 13 13 12 12 13 12 10 9 9 9 9 10 10 9 8 8 7 7 7 7 7
17 17 17 17 17 17 16 16 16 16 16 16 16 16 16 16 17 18 17 17 16 13 10 9 11 12 12 12 11 12 12 12 10 9 9 9 9 9 9 8 8 8 8 8 8 7 7
17 17 16 17 17 17 16 16 16 16 16 17 17 17 17 17 18 18 18 17 16 12 7 8 10 11 11 11 10 11 12 11 10 9 9 8 8 8 8 8 8 8 8 8 7 7 6
17 17 16 16 17 17 16 16 17 17 17 17 17 18 18 18 18 18 18 16 14 10 7 8 9 10 10 9 10 10 11 10 9 8 8 8 8 8 7 7 7 7 7 6 6 5 4
17 17 16 17 17 17 17 17 17 17 17 17 17 18 18 18 18 18 17 14 11 8 8 8 9 9 9 9 9 9 9 9 8 7 7 7 7 7 7 7 6 6 5 4 3 2 2
17 17 17 17 17 17 17 17 17 17 17 17 17 18 18 18 18 16 15 12 8 8 9 10 10 9 9 9 9 9 8 8 7 6 6 5 5 6 7 6 6 5 4 3 2 1 2
17 17 18 18 18 18 17 17 17 17 17 17 18 18 18 18 17 15 13 10 8 9 10 10 10 9 9 9 8 8 8 7 7 6 6 5 5 6 7 6 6 5 5 4 3 2 2
18 18 19 19 19 18 18 17 17 17 17 18 19 19 18 17 16 15 13 11 11 12 12 11 10 9 8 8 8 7 7 7 7 6 5 5 5 5 6 6 6 5 5 5 4 2 1
19 19 19 19 19 18 18 17 17 17 18 18 19 19 19 18 17 15 14 13 13 13 12 10 10 9 8 7 7 7 7 7 6 5 5 5 5 5 5 5 5 5 5 4 4 2 1
19 19 19 19 19 18 17 17 17 17 18 18 18 19 19 18 17 16 15 14 14 12 11 9 8 8 7 7 6 6 6 6 6 5 5 5 5 5 5 5 5 5 4 4 3 2 2
19 19 19 18 18 17 17 17 17 17 17 18 18 18 18 18 17 16 15 14 12 11 10 8 7 6 6 5 5 5 5 5 5 5 5 4 4 4 5 5 5 4 4 3 2 2 1
18 18 18 17 17 17 17 17 17 17 17 17 17 17 16 16 15 14 13 11 10 9 7 7 6 5 4 4 4 4 4 4 4 4 4 3 2 3 3 3 3 3 3 2 2 1 1
17 17 17 16 17 17 17 17 17 17 17 17 16 15 14 13 12 11 10 8 7 5 4 3 3 3 2 2 3 2 2 3 3 3 2 1 1 1 1 1 1 1 1 1 1 1 0
16 16 16 16 16 16 16 16 16 16 16 15 14 13 12 11 9 7 6 4 3 2 1 1 1 1 1 1 1 1 1 1 1 2 1 1 1 1 1 1 1 1 1 1 1 1 0
16 16 16 16 16 16 16 15 15 14 14 13 12 11 10 8 5 3 2 1 1 1 0 0 0 0 0 0 1 1 1 1 1 1 1 1 1 1 1 1 1 1 1 1 1 1 1
16 16 16 16 16 15 14 14 13 12 11 10 9 9 7 5 2 1 0 0 0 0 0 0 0 0 0 1 1 1 1 1 1 1 1 1 1 1 1 1 1 1 1 1 1 1 1
16 16 16 15 15 14 13 12 11 9 8 7 6 5 4 3 1 0 0 0 0 0 0 0 0 0 1 1 1 1 0 0 1 1 1 1 0 0 0 0 0 1 1 1 1 1 1
15 15 15 14 13 12 11 9 8 7 6 5 4 3 2 2 1 0 0 1 1 1 1 1 1 1 1 1 1 0 0 0 1 1 1 1 0 0 -0 -0 0 0 1 2 2 1 2
15 15 14 13 11 10 8 7 6 5 4 3 2 2 1 1 1 1 1 1 1 1 1 1 1 1 1 1 0 0 0 0 1 1 1 1 0 0 -0 -0 1 2 3 3 3 4 5
14 14 12 10 9 7 6 5 4 3 2 2 2 2 1 1 1 1 1 1 1 1 1 1 1 1 1 1 0 0 0 1 1 1 1 1 0 0 0 1 3 5 6 6 6 7 8
13 12 11 9 7 6 5 4 3 2 2 1 2 2 2 2 1 1 2 2 2 2 2 2 1 1 1 1 1 1 1 1 1 1 1 1 1 1 1 2 6 8 8 9 10 10 10